Content
SEND FEEDBACK

Daily
Averages
Monthly
Summary
United States of America

EUREKA, CALIFORNIA


Home > North America > United States > California
Elevation: 59 feet     Latitude: 40 48N     Longitude: 124 07W

WEATHER
 
SELECT A DAY
Number of Records: 244,819;   Date Range: 1/1/95 - 11/22/14
 
SHARE

PRINT THIS DATA

[ ← Previous Day ]
WEATHER ALMANAC - JUNE 14, 2013
[ Next Day → ]
[ °C ]   °F
Weather ElementAverageHighLow
Temperature48.5 °F57 °F (3:53 pm)41 °F (5:53 am)
Dewpoint46.8 °F50 °F (3:53 pm)41 °F (5:53 am)
Humidity93.9 %100 % (1:00 am)77 % (1:53 pm)
Barometer30.11 in30.25 in (12:53 am)30.01 in (6:53 pm)
Wind Speed4.5 mph19.6 mph (4:53 pm)
Wind Gust26.5 mph (4:53 pm)
Weather ElementAverage
Visibility6.8 mi
Wind DirectionSSE (151 °)

Weather ElementTotal
Precipitation---
Heating Degree Days16 (Base 65)
Averaged from 48 records on June 14, 2013
WEATHER CONDITIONS BREAKOUT
WIND DIRECTION BREAKOUT
WEATHER BY HOUR - JUNE 14, 2013
[ °C ]   °F
Local TimeTemperatureDewpointHumidityBarometerVisibilityWind DirectionWind SpeedGust SpeedPrecipitationEventsConditions
12:53 AM48.9 °F48.0 °F97 %30.25 in10.0 miNNE (20°)3.5 mphScattered Clouds
1:00 AM48.2 °F48.2 °F100 %30.23 in10.0 miNE (50°)3.5 mphMostly Cloudy
1:53 AM46.9 °F46.9 °F100 %30.22 in10.0 miCalmOvercast
2:23 AM46.4 °F44.6 °F93 %30.19 in10.0 miCalmScattered Clouds
2:41 AM46.4 °F44.6 °F93 %30.19 in10.0 miCalmMostly Cloudy
2:53 AM45.0 °F45.0 °F100 %30.20 in10.0 miCalmOvercast
3:53 AM46.9 °F46.0 °F97 %30.18 in10.0 miESE (110°)3.5 mphOvercast
4:26 AM44.6 °F44.6 °F100 %30.15 in10.0 miCalmScattered Clouds
4:53 AM44.1 °F44.1 °F100 %30.17 in10.0 miCalmClear
5:53 AM41.0 °F41.0 °F100 %30.16 in10.0 miCalmClear
6:53 AM45.0 °F45.0 °F100 %30.14 in10.0 miCalmClear
7:14 AM46.4 °F46.4 °F100 %30.13 in10.0 miWNW (300°)4.6 mphScattered Clouds
7:23 AM46.4 °F46.4 °F100 %30.13 in3.0 miNNW (330°)3.5 mphMostly Cloudy
7:25 AM46.4 °F46.4 °F100 %30.13 in1.2 miCalmMostly Cloudy
7:33 AM46.4 °F46.4 °F100 %30.13 in0.5 miCalmFogFog
7:38 AM46.4 °F46.4 °F100 %30.12 in1.0 miCalmOvercast
7:42 AM46.4 °F46.4 °F100 %30.13 in3.0 miCalmOvercast
7:53 AM46.9 °F46.9 °F100 %30.14 in8.0 miCalmOvercast
8:41 AM48.2 °F46.4 °F93 %30.11 in1.5 miWNW (300°)5.8 mphMostly Cloudy
8:50 AM48.2 °F46.4 °F93 %30.11 in0.5 miNW (320°)4.6 mphFogFog
8:53 AM48.0 °F46.9 °F96 %30.13 in0.5 miNW (310°)3.5 mphFogFog
9:07 AM48.2 °F46.4 °F93 %30.11 in1.0 miNW (310°)4.6 mphOvercast
9:15 AM46.4 °F46.4 °F100 %30.11 in0.5 miWNW (300°)5.8 mphFogFog
9:26 AM46.4 °F46.4 °F100 %30.11 in0.2 miWest (280°)5.8 mphFogFog
9:51 AM46.4 °F46.4 °F100 %30.10 in0.8 miVariable3.5 mphMist
9:53 AM46.9 °F46.9 °F100 %30.12 in0.8 miCalmMist
10:20 AM48.2 °F46.4 °F93 %30.10 in2.0 miWNW (300°)3.5 mphOvercast
10:28 AM48.2 °F46.4 °F93 %30.10 in10.0 miVariable3.5 mphOvercast
10:53 AM48.9 °F48.0 °F97 %30.11 in2.0 miVariable3.5 mphOvercast
11:01 AM48.2 °F46.4 °F93 %30.09 in0.8 miWNW (290°)3.5 mphOvercast
11:20 AM50.0 °F48.2 °F94 %30.08 in2.0 miNW (320°)5.8 mphOvercast
11:28 AM51.8 °F48.2 °F88 %30.08 in9.0 miNW (310°)6.9 mphOvercast
11:53 AM52.0 °F48.9 °F89 %30.09 in10.0 miWNW (290°)6.9 mphMostly Cloudy
12:11 PM53.6 °F48.2 °F82 %30.07 in10.0 miWNW (300°)8.1 mphPartly Cloudy
12:53 PM54.0 °F48.9 °F83 %30.08 in10.0 miNW (320°)10.4 mphClear
1:53 PM55.9 °F48.9 °F77 %30.07 in10.0 miNNW (330°)11.5 mphClear
2:53 PM55.9 °F48.9 °F77 %30.05 in10.0 miNNW (340°)16.1 mph23.0 mphClear
3:53 PM57.0 °F50.0 °F77 %30.04 in10.0 miNNW (330°)16.1 mph23.0 mphClear
4:53 PM55.0 °F48.9 °F80 %30.03 in10.0 miNNW (330°)19.6 mph26.5 mphClear
5:53 PM55.0 °F48.0 °F77 %30.02 in10.0 miNNW (330°)18.4 mph25.3 mphClear
6:53 PM53.1 °F48.0 °F83 %30.01 in10.0 miNNW (330°)13.8 mphClear
7:53 PM51.1 °F48.0 °F89 %30.02 in10.0 miNNW (330°)9.2 mphClear
8:53 PM50.0 °F48.0 °F93 %30.02 in9.0 miNorthClear
9:53 PM46.0 °F46.0 °F100 %30.02 in10.0 miSouth (170°)3.5 mphClear
10:53 PM46.9 °F46.0 °F97 %30.03 in10.0 miCalmClear
11:14 PM46.4 °F46.4 °F100 %30.01 in10.0 miCalmMostly Cloudy
11:24 PM46.4 °F44.6 °F93 %30.01 in10.0 miCalmMostly Cloudy
11:53 PM48.9 °F48.0 °F97 %30.02 in10.0 miCalmOvercast
Hourly data recorded from KACV, located miles away from Eureka, California







STORIES FROM OUR PARTNERS